User: anonymous   Login
Location: Ash Swamp
(41.5170°N, 74.6157°W)
Time: 17:43:24
(UTC+00:00)
Language:

Cosmos 2242 Rocket - Orbit

View from above orbital plane
View from above orbital plane
View from above satellite
View from above satellite

Ground track
Ground track

The orbit data is extracted from the following two-line orbital elements,

1 22627U 93024B   20270.71449883  .00000090  00000-0  92360-5 0  9996
2 22627  82.5207  67.9935 0023949  18.8111 341.3980 14.78180718479048
Epoch (UTC): 26 September 2020 17:08:52
Eccentricity: 0.0023949
inclination: 82.5207°
perigee height: 618 km
apogee height: 652 km
right ascension of ascending node: 67.9935°
argument of perigee: 18.8111°
revolutions per day: 14.78180718
mean anomaly at epoch: 341.3980°
orbit number at epoch: 47904

The dashed part of the orbit path shows where the satellite is in the earth's shadow,  

DLR